Miscellaneous Local Product
Issued by NWS Hastings, NE

Home | Current Version | Previous Version | Graphics & Text | Print | Product List | Glossary On
Versions: 1 2 3 4 5 6 7 8 9 10 11 12 13 14 15 16 17 18 19 20 21 22 23 24 25 26 27 28 29 30 31 32 33 34 35 36 37 38 39 40 41 42 43 44 45 46 47 48 49 50
000
AXUS43 KGID 280002
MISGRI

GID CWA HOURLY WEATHER ROUNDUP
NATIONAL WEATHER SERVICE HASTINGS NE
700 PM CDT TUE JUN 27 2017

NOTE: "FAIR" INDICATES FEW OR NO CLOUDS BELOW 12,000 FEET WITH NO
SIGNIFICANT WEATHER AND/OR OBSTRUCTIONS TO VISIBILITY.

...SOUTH CENTRAL NEBRASKA...

CITY           SKY/WX    TMP DP  RH WIND       PRES   REMARKS
GRAND ISLAND   FAIR      82  69  64 SE21G29   29.73F
HASTINGS       FAIR      83  68  60 SE18G30   29.74F
KEARNEY        FAIR      84  66  54 SE24G31   29.69F
ORD            SUNNY     83  64  52 SE20G29   29.68F
YORK           FAIR      82  66  57 S15G23    29.76F
AURORA         FAIR      83  67  58 SE18G26   29.74F
LEXINGTON      PTSUNNY   91  58  32 SE16G23   29.64F HX  90
HOLDREGE       FAIR      90  52  27 S21       29.68F
HEBRON         FAIR      85  71  62 S16G25    29.76F HX  90

...NEBRASKA PANHANDLE...

CITY           SKY/WX    TMP DP  RH WIND       PRES   REMARKS
CHADRON        CLOUDY    67  60  78 SW12      29.67F
ALLIANCE       CLOUDY    79  54  41 NE9       29.70R
SCOTTSBLUFF    MOSUNNY   87  51  28 NE6       29.68S
SIDNEY         CLOUDY    72  57  59 E8        29.72R

...WESTERN AND NORTH CENTRAL NEBRASKA...

CITY           SKY/WX    TMP DP  RH WIND       PRES   REMARKS
VALENTINE      CLOUDY    83  57  41 S21G31    29.66R
AINSWORTH      PTSUNNY   81  64  55 S20G31    29.63F
ONEILL         MOSUNNY   82  66  57 S24       29.68F
BROKEN BOW     MOSUNNY   85  66  53 SE16G25   29.67F
IMPERIAL       CLOUDY    90  37  15 S13       29.63F
NORTH PLATTE   CLOUDY    87  65  47 E13       29.62F
MCCOOK         MOSUNNY   93  55  27 S28G39    29.61F HX  91

...EASTERN NEBRASKA...

CITY           SKY/WX    TMP DP  RH WIND       PRES   REMARKS
NORFOLK        PTSUNNY   80  64  58 S24G32    29.72F
SO SIOUX CITY  FAIR      79  62  56 S21G28    29.77F
TEKAMAH        PTSUNNY   80  62  54 S24G31    29.80F
COLUMBUS       FAIR      81  67  62 SE18G28   29.74F
ALBION         FAIR      81  65  57 S21G28    29.72F
OMAHA EPPLEY   PTSUNNY   79  63  57 S22G32    29.81F
OFFUTT AFB     FAIR      79  65  60 SE15      29.81F
MILLARD        CLOUDY    81  67  63 SE16G23   29.81F
LINCOLN        FAIR      82  67  60 S21G32    29.78F
NEBRASKA CITY  FAIR      78  68  71 S20G25    29.83F
BEATRICE       FAIR      80  69  70 S16G26    29.80F
FALLS CITY     FAIR      80  66  62 S15       29.84F

...NORTHERN KANSAS...

CITY           SKY/WX    TMP DP  RH WIND       PRES   REMARKS
GOODLAND       CLOUDY    88  54  31 S14       29.70F
HILL CITY      FAIR      92  57  30 S16G22    29.69F HX  90
NORTON         CLEAR     93  45  18 S18G32    29.67F
PHILLIPSBURG   SUNNY     97  54  23 S22G29    29.68F HX  94
SMITH CENTER   MOSUNNY   93  61  33 S23G32    29.70F HX  93
HAYS           FAIR      93  64  38 S22G31    29.71F HX  94
RUSSELL        FAIR      94  61  33 S26G41    29.72F HX  94
CONCORDIA      FAIR      88  72  58 S23G33    29.75F HX  94
SALINA         FAIR      94  65  38 S21G33    29.77F HX  96
TOPEKA         FAIR      81  69  67 SE17G25   29.87F



USA.gov is the U.S. government's official web portal to all federal, state and local government web resources and services.